Time,TemperatureF,DewpointF,PressureIn,WindDirection,WindDirectionDegrees,WindSpeedMPH,WindSpeedGustMPH,Humidity,HourlyPrecipIn,Conditions,Clouds,dailyrainin,SoftwareType,DateUTC
2013-01-23 00:03:00,42.6,29.8,30.05,North,0,0.0,0.0,61,0.00,,,0.00,WUHU216HW,2013-01-23 08:03:00,
2013-01-23 00:08:00,42.4,29.8,30.04,North,0,0.0,0.0,61,0.00,,,0.00,WUHU216HW,2013-01-23 08:08:00,
2013-01-23 00:13:00,42.4,29.8,30.04,North,0,0.0,0.0,61,0.00,,,0.00,WUHU216HW,2013-01-23 08:13:00,
2013-01-23 00:18:00,42.2,29.7,30.04,North,0,0.0,0.0,61,0.00,,,0.00,WUHU216HW,2013-01-23 08:18:00,
2013-01-23 00:23:00,42.2,29.7,30.04,North,0,0.0,0.0,61,0.00,,,0.00,WUHU216HW,2013-01-23 08:23:00,
2013-01-23 00:28:00,42.2,29.7,30.04,North,0,0.0,0.0,61,0.00,,,0.00,WUHU216HW,2013-01-23 08:28:00,
2013-01-23 00:33:00,42.0,29.7,30.04,North,0,0.0,0.0,61,0.00,,,0.00,WUHU216HW,2013-01-23 08:33:00,
2013-01-23 00:38:00,42.2,30.1,30.04,North,0,0.0,0.0,62,0.00,,,0.00,WUHU216HW,2013-01-23 08:38:00,
2013-01-23 00:43:00,42.0,30.3,30.04,North,0,0.0,0.0,63,0.00,,,0.00,WUHU216HW,2013-01-23 08:43:00,
2013-01-23 00:48:00,42.0,30.5,30.04,North,0,0.0,0.0,63,0.00,,,0.00,WUHU216HW,2013-01-23 08:48:00,
2013-01-23 00:53:00,41.9,30.1,30.04,North,0,0.0,0.0,63,0.00,,,0.00,WUHU216HW,2013-01-23 08:53:00,
2013-01-23 00:58:00,41.9,30.1,30.03,North,0,0.0,0.0,63,0.00,,,0.00,WUHU216HW,2013-01-23 08:58:00,
2013-01-23 01:03:00,41.9,30.1,30.03,North,0,0.0,0.0,63,0.00,,,0.00,WUHU216HW,2013-01-23 09:03:00,
2013-01-23 01:08:00,41.9,30.1,30.03,North,0,0.0,0.0,63,0.00,,,0.00,WUHU216HW,2013-01-23 09:08:00,
2013-01-23 01:13:00,42.0,30.3,30.03,North,0,0.0,0.0,63,0.00,,,0.00,WUHU216HW,2013-01-23 09:13:00,
2013-01-23 01:18:00,41.9,30.1,30.03,North,0,0.0,0.0,63,0.00,,,0.00,WUHU216HW,2013-01-23 09:18:00,
2013-01-23 01:23:00,41.9,29.8,30.03,North,0,0.0,0.0,62,0.00,,,0.00,WUHU216HW,2013-01-23 09:23:00,
2013-01-23 01:28:00,41.9,29.8,30.03,North,0,0.0,0.0,62,0.00,,,0.00,WUHU216HW,2013-01-23 09:28:00,
2013-01-23 01:33:00,41.7,30.0,30.03,North,0,0.0,0.0,63,0.00,,,0.00,WUHU216HW,2013-01-23 09:33:00,
2013-01-23 01:38:00,41.9,30.1,30.03,North,0,0.0,0.0,63,0.00,,,0.00,WUHU216HW,2013-01-23 09:38:00,
2013-01-23 01:43:00,41.9,30.1,30.03,North,0,0.0,0.0,63,0.00,,,0.00,WUHU216HW,2013-01-23 09:43:00,
2013-01-23 01:48:00,41.9,30.5,30.02,North,0,0.0,0.0,64,0.00,,,0.00,WUHU216HW,2013-01-23 09:48:00,
2013-01-23 01:53:00,41.7,30.3,30.02,North,0,0.0,0.0,64,0.00,,,0.00,WUHU216HW,2013-01-23 09:53:00,
2013-01-23 01:58:00,41.7,30.3,30.03,North,0,0.0,0.0,64,0.00,,,0.00,WUHU216HW,2013-01-23 09:58:00,
2013-01-23 02:03:00,41.7,30.7,30.03,North,0,0.0,0.0,65,0.00,,,0.00,WUHU216HW,2013-01-23 10:03:00,
2013-01-23 02:08:00,41.7,30.7,30.03,North,0,0.0,0.0,65,0.00,,,0.00,WUHU216HW,2013-01-23 10:08:00,
2013-01-23 02:13:00,41.5,30.6,30.03,North,0,0.0,0.0,65,0.00,,,0.00,WUHU216HW,2013-01-23 10:13:00,
2013-01-23 02:18:00,41.5,30.6,30.03,North,0,0.0,0.0,65,0.00,,,0.00,WUHU216HW,2013-01-23 10:18:00,
2013-01-23 02:24:00,41.5,30.6,30.03,North,0,0.0,0.0,65,0.00,,,0.00,WUHU216HW,2013-01-23 10:24:00,
2013-01-23 02:29:00,41.3,30.4,30.03,North,0,0.0,0.0,65,0.00,,,0.00,WUHU216HW,2013-01-23 10:29:00,
2013-01-23 02:34:00,41.3,30.4,30.03,North,0,0.0,0.0,65,0.00,,,0.00,WUHU216HW,2013-01-23 10:34:00,
2013-01-23 02:39:00,41.3,30.4,30.02,North,0,0.0,0.0,65,0.00,,,0.00,WUHU216HW,2013-01-23 10:39:00,
2013-01-23 02:44:00,41.3,30.4,30.02,North,0,0.0,0.0,65,0.00,,,0.00,WUHU216HW,2013-01-23 10:44:00,
2013-01-23 02:49:00,41.3,30.0,30.02,North,0,0.0,0.0,64,0.00,,,0.00,WUHU216HW,2013-01-23 10:49:00,
2013-01-23 02:54:00,41.3,30.4,30.02,North,0,0.0,0.0,65,0.00,,,0.00,WUHU216HW,2013-01-23 10:54:00,
2013-01-23 02:59:00,41.5,30.4,30.02,North,0,0.0,0.0,65,0.00,,,0.00,WUHU216HW,2013-01-23 10:59:00,
2013-01-23 03:04:00,41.3,30.4,30.02,North,0,0.0,0.0,65,0.00,,,0.00,WUHU216HW,2013-01-23 11:04:00,
2013-01-23 03:09:00,41.3,30.4,30.02,North,0,0.0,0.0,65,0.00,,,0.00,WUHU216HW,2013-01-23 11:09:00,
2013-01-23 03:14:00,41.5,30.6,30.01,North,0,0.0,0.0,65,0.00,,,0.00,WUHU216HW,2013-01-23 11:14:00,
2013-01-23 03:19:00,41.7,31.1,30.00,North,0,0.0,0.0,66,0.00,,,0.00,WUHU216HW,2013-01-23 11:19:00,
2013-01-23 03:24:00,41.7,31.1,30.00,North,0,0.0,0.0,66,0.00,,,0.00,WUHU216HW,2013-01-23 11:24:00,
2013-01-23 03:29:00,41.9,30.9,29.99,North,0,0.0,0.0,65,0.00,,,0.00,WUHU216HW,2013-01-23 11:29:00,
2013-01-23 03:34:00,41.9,30.9,29.99,North,0,0.0,0.0,65,0.00,,,0.00,WUHU216HW,2013-01-23 11:34:00,
2013-01-23 03:39:00,41.9,31.3,29.99,North,0,0.0,0.0,66,0.00,,,0.00,WUHU216HW,2013-01-23 11:39:00,
2013-01-23 03:44:00,42.2,31.6,29.99,North,0,0.0,0.0,66,0.00,,,0.00,WUHU216HW,2013-01-23 11:44:00,
2013-01-23 03:49:00,42.2,31.6,29.99,North,0,0.0,0.0,66,0.00,,,0.00,WUHU216HW,2013-01-23 11:49:00,
2013-01-23 03:54:00,42.2,31.6,29.99,North,0,0.0,0.0,66,0.00,,,0.00,WUHU216HW,2013-01-23 11:54:00,
2013-01-23 03:59:00,42.4,31.8,29.99,North,0,0.0,0.0,66,0.00,,,0.00,WUHU216HW,2013-01-23 11:59:00,
2013-01-23 04:04:00,42.4,31.8,29.99,North,0,0.0,0.0,66,0.00,,,0.00,WUHU216HW,2013-01-23 12:04:00,
2013-01-23 04:09:00,42.8,32.2,29.98,North,0,0.0,0.0,66,0.00,,,0.00,WUHU216HW,2013-01-23 12:09:00,
2013-01-23 04:14:00,42.8,32.2,29.98,North,0,0.0,0.0,66,0.00,,,0.00,WUHU216HW,2013-01-23 12:14:00,
2013-01-23 04:19:00,42.6,32.0,29.98,North,0,0.0,0.0,66,0.00,,,0.00,WUHU216HW,2013-01-23 12:19:00,
2013-01-23 04:24:00,42.6,31.6,29.97,North,0,0.0,0.0,65,0.00,,,0.00,WUHU216HW,2013-01-23 12:24:00,
2013-01-23 04:29:00,42.4,31.4,29.98,North,0,0.0,0.0,65,0.00,,,0.00,WUHU216HW,2013-01-23 12:29:00,
2013-01-23 04:34:00,42.6,31.6,29.98,North,0,0.0,0.0,65,0.00,,,0.00,WUHU216HW,2013-01-23 12:34:00,
2013-01-23 04:39:00,42.8,31.8,29.99,North,0,0.0,0.0,65,0.00,,,0.00,WUHU216HW,2013-01-23 12:39:00,
2013-01-23 04:44:00,42.8,31.8,29.99,North,0,0.0,0.0,65,0.00,,,0.00,WUHU216HW,2013-01-23 12:44:00,
2013-01-23 04:49:00,42.9,32.3,29.99,North,0,0.0,0.0,66,0.00,,,0.00,WUHU216HW,2013-01-23 12:49:00,
2013-01-23 04:54:00,42.9,32.3,29.98,North,0,0.0,0.0,66,0.00,,,0.00,WUHU216HW,2013-01-23 12:54:00,
2013-01-23 04:59:00,42.9,32.3,29.98,North,0,0.0,0.0,66,0.00,,,0.00,WUHU216HW,2013-01-23 12:59:00,
2013-01-23 05:04:00,42.9,32.3,29.98,North,0,0.0,0.0,66,0.00,,,0.00,WUHU216HW,2013-01-23 13:04:00,
2013-01-23 05:09:00,43.1,32.5,29.98,North,0,0.0,0.0,66,0.00,,,0.00,WUHU216HW,2013-01-23 13:09:00,
2013-01-23 05:14:00,43.1,32.5,29.99,North,0,0.0,0.0,66,0.00,,,0.00,WUHU216HW,2013-01-23 13:14:00,
2013-01-23 05:19:00,42.9,32.3,29.99,North,0,0.0,0.0,66,0.00,,,0.00,WUHU216HW,2013-01-23 13:19:00,
2013-01-23 05:24:00,42.9,32.3,29.99,North,0,0.0,0.0,66,0.00,,,0.00,WUHU216HW,2013-01-23 13:24:00,
2013-01-23 05:29:00,43.1,32.1,29.99,North,0,0.0,0.0,65,0.00,,,0.00,WUHU216HW,2013-01-23 13:29:00,
2013-01-23 05:34:00,43.1,32.5,29.99,NNW,338,0.0,0.0,66,0.00,,,0.00,WUHU216HW,2013-01-23 13:34:00,
2013-01-23 05:39:00,43.1,32.5,29.99,NNW,338,0.0,0.0,66,0.00,,,0.00,WUHU216HW,2013-01-23 13:39:00,
2013-01-23 05:44:00,43.3,33.0,29.98,SW,225,1.1,1.1,67,0.00,,,0.00,WUHU216HW,2013-01-23 13:44:00,
2013-01-23 05:49:00,43.3,33.0,29.98,South,180,0.0,1.1,67,0.00,,,0.00,WUHU216HW,2013-01-23 13:49:00,
2013-01-23 05:54:00,43.5,33.2,29.98,South,180,0.0,1.1,67,0.00,,,0.00,WUHU216HW,2013-01-23 13:54:00,
2013-01-23 05:59:00,43.5,33.2,29.98,South,180,0.0,0.0,67,0.00,,,0.00,WUHU216HW,2013-01-23 13:59:00,
2013-01-23 06:04:00,43.7,33.4,29.98,South,180,0.0,0.0,67,0.00,,,0.00,WUHU216HW,2013-01-23 14:04:00,
2013-01-23 06:09:00,43.7,33.0,29.97,South,180,0.8,0.8,66,0.00,,,0.00,WUHU216HW,2013-01-23 14:09:00,
2013-01-23 06:14:00,43.7,32.6,29.97,SSE,158,0.0,0.8,65,0.00,,,0.00,WUHU216HW,2013-01-23 14:14:00,
2013-01-23 06:19:00,43.7,32.6,29.96,SSE,158,0.0,1.5,65,0.00,,,0.00,WUHU216HW,2013-01-23 14:19:00,
2013-01-23 06:24:00,43.8,32.8,29.97,SSE,158,0.0,1.5,65,0.00,,,0.00,WUHU216HW,2013-01-23 14:24:00,
2013-01-23 06:29:00,44.0,33.0,29.97,SSE,158,0.0,1.3,65,0.00,,,0.00,WUHU216HW,2013-01-23 14:29:00,
2013-01-23 06:34:00,44.2,33.1,29.97,SE,135,0.0,1.3,65,0.00,,,0.00,WUHU216HW,2013-01-23 14:34:00,
2013-01-23 06:39:00,44.0,32.6,29.97,SE,135,0.0,0.0,64,0.00,,,0.00,WUHU216HW,2013-01-23 14:39:00,
2013-01-23 06:44:00,44.2,32.7,29.97,SE,135,0.0,0.0,64,0.00,,,0.00,WUHU216HW,2013-01-23 14:44:00,
2013-01-23 06:49:00,44.2,32.7,29.97,SE,135,0.0,0.0,64,0.00,,,0.00,WUHU216HW,2013-01-23 14:49:00,
2013-01-23 06:54:00,44.2,32.7,29.97,SE,135,0.0,0.0,64,0.00,,,0.00,WUHU216HW,2013-01-23 14:54:00,
2013-01-23 06:59:00,44.2,32.4,29.97,SE,135,0.0,0.0,63,0.00,,,0.00,WUHU216HW,2013-01-23 14:59:00,
2013-01-23 07:05:00,44.2,32.4,29.97,SE,135,0.0,0.0,63,0.00,,,0.00,WUHU216HW,2013-01-23 15:05:00,
2013-01-23 07:10:00,44.2,32.4,29.98,SE,135,0.0,0.0,63,0.00,,,0.00,WUHU216HW,2013-01-23 15:10:00,
2013-01-23 07:15:00,44.2,32.4,29.98,SE,135,0.0,0.0,63,0.00,,,0.00,WUHU216HW,2013-01-23 15:15:00,
2013-01-23 07:20:00,44.2,32.4,29.99,SE,135,0.0,0.0,63,0.00,,,0.00,WUHU216HW,2013-01-23 15:20:00,
2013-01-23 07:25:00,44.2,32.7,29.99,SE,135,0.0,0.0,64,0.00,,,0.00,WUHU216HW,2013-01-23 15:25:00,
2013-01-23 07:30:00,44.2,32.4,29.99,SE,135,0.0,0.0,63,0.00,,,0.00,WUHU216HW,2013-01-23 15:30:00,
2013-01-23 07:35:00,44.2,32.4,29.99,SE,135,0.0,0.0,63,0.00,,,0.00,WUHU216HW,2013-01-23 15:35:00,
2013-01-23 07:40:00,44.2,32.4,29.99,SE,135,0.0,0.0,63,0.00,,,0.00,WUHU216HW,2013-01-23 15:40:00,
2013-01-23 07:45:00,44.7,33.1,29.98,WSW,248,0.0,0.0,64,0.00,,,0.00,WUHU216HW,2013-01-23 15:45:00,
2013-01-23 07:50:00,44.7,33.3,29.97,SW,225,0.0,0.0,64,0.00,,,0.00,WUHU216HW,2013-01-23 15:50:00,
2013-01-23 07:55:00,44.7,33.3,29.98,SW,225,0.0,0.0,64,0.00,,,0.00,WUHU216HW,2013-01-23 15:55:00,
2013-01-23 08:00:00,44.7,33.3,29.99,SW,225,0.0,0.0,64,0.00,,,0.00,WUHU216HW,2013-01-23 16:00:00,
2013-01-23 08:05:00,44.9,33.4,29.99,SW,225,0.0,0.0,64,0.00,,,0.00,WUHU216HW,2013-01-23 16:05:00,
2013-01-23 08:10:00,44.9,33.4,29.99,SW,225,0.0,0.0,64,0.00,,,0.00,WUHU216HW,2013-01-23 16:10:00,
2013-01-23 08:15:00,44.9,33.4,29.99,SW,225,0.0,0.0,64,0.00,,,0.00,WUHU216HW,2013-01-23 16:15:00,
2013-01-23 08:20:00,44.9,33.4,29.99,SW,225,0.0,0.0,64,0.00,,,0.00,WUHU216HW,2013-01-23 16:20:00,
2013-01-23 08:25:00,44.9,33.4,29.99,SW,225,0.0,0.0,64,0.00,,,0.00,WUHU216HW,2013-01-23 16:25:00,
2013-01-23 08:30:00,45.3,34.2,30.00,SW,225,0.0,0.0,65,0.00,,,0.00,WUHU216HW,2013-01-23 16:30:00,
2013-01-23 08:35:00,45.5,33.9,29.99,SW,225,0.0,0.0,64,0.00,,,0.00,WUHU216HW,2013-01-23 16:35:00,
2013-01-23 08:40:00,45.8,34.3,29.99,South,180,0.0,0.0,64,0.00,,,0.00,WUHU216HW,2013-01-23 16:40:00,
2013-01-23 08:45:00,46.2,34.6,29.99,South,180,0.0,2.4,64,0.00,,,0.00,WUHU216HW,2013-01-23 16:45:00,
2013-01-23 08:50:00,46.2,34.6,30.00,SSE,158,0.0,2.4,64,0.00,,,0.00,WUHU216HW,2013-01-23 16:50:00,
2013-01-23 08:55:00,46.7,35.1,29.99,SSE,158,0.0,0.0,64,0.00,,,0.00,WUHU216HW,2013-01-23 16:55:00,
2013-01-23 09:00:00,47.1,35.5,30.00,SSE,158,0.0,0.0,64,0.00,,,0.00,WUHU216HW,2013-01-23 17:00:00,
2013-01-23 09:05:00,47.3,35.5,30.00,SSE,158,0.0,0.0,64,0.00,,,0.00,WUHU216HW,2013-01-23 17:05:00,
2013-01-23 09:10:00,47.4,35.8,30.00,SSE,158,0.0,0.0,64,0.00,,,0.00,WUHU216HW,2013-01-23 17:10:00,
2013-01-23 09:15:00,47.6,35.2,30.00,SSE,158,0.0,0.0,62,0.00,,,0.00,WUHU216HW,2013-01-23 17:15:00,
2013-01-23 09:20:00,47.8,35.4,30.00,SSE,158,0.0,0.0,62,0.00,,,0.00,WUHU216HW,2013-01-23 17:20:00,
2013-01-23 09:25:00,47.8,35.4,30.00,SSE,158,0.0,0.0,62,0.00,,,0.00,WUHU216HW,2013-01-23 17:25:00,
2013-01-23 09:30:00,48.3,35.9,30.01,SSE,158,0.0,0.0,62,0.00,,,0.00,WUHU216HW,2013-01-23 17:30:00,
2013-01-23 09:35:00,48.5,36.5,30.01,SSE,158,0.0,0.0,63,0.00,,,0.00,WUHU216HW,2013-01-23 17:35:00,
2013-01-23 09:40:00,48.9,36.8,30.01,SSE,158,0.0,0.0,63,0.00,,,0.00,WUHU216HW,2013-01-23 17:40:00,
2013-01-23 09:45:00,49.1,36.6,30.02,NW,315,0.0,0.0,62,0.00,,,0.00,WUHU216HW,2013-01-23 17:45:00,
2013-01-23 09:50:00,49.6,37.1,30.02,NW,315,1.1,1.7,62,0.00,,,0.00,WUHU216HW,2013-01-23 17:50:00,
2013-01-23 09:55:00,49.6,37.1,30.03,NNW,338,5.8,5.8,62,0.00,,,0.00,WUHU216HW,2013-01-23 17:55:00,
2013-01-23 10:00:00,49.6,36.7,30.04,NNW,338,1.7,5.8,61,0.00,,,0.00,WUHU216HW,2013-01-23 18:00:00,
2013-01-23 10:05:00,50.3,37.4,30.03,NNW,338,1.7,1.7,61,0.00,,,0.00,WUHU216HW,2013-01-23 18:05:00,
2013-01-23 10:10:00,50.3,37.4,30.02,NW,315,0.0,1.7,61,0.00,,,0.00,WUHU216HW,2013-01-23 18:10:00,
2013-01-23 10:15:00,50.3,37.4,30.03,NW,315,0.0,1.7,61,0.00,,,0.00,WUHU216HW,2013-01-23 18:15:00,
2013-01-23 10:20:00,50.7,37.7,30.04,NNW,338,0.0,0.0,61,0.00,,,0.00,WUHU216HW,2013-01-23 18:20:00,
2013-01-23 10:25:00,50.5,37.6,30.04,NNW,338,0.0,0.0,61,0.00,,,0.00,WUHU216HW,2013-01-23 18:25:00,
2013-01-23 10:30:00,51.0,37.6,30.05,NNW,338,0.0,0.0,60,0.00,,,0.00,WUHU216HW,2013-01-23 18:30:00,
2013-01-23 10:35:00,51.4,37.8,30.05,NNW,338,0.0,0.0,60,0.00,,,0.00,WUHU216HW,2013-01-23 18:35:00,
2013-01-23 10:40:00,51.4,37.9,30.05,NNW,338,0.0,0.0,60,0.00,,,0.00,WUHU216HW,2013-01-23 18:40:00,
2013-01-23 10:45:00,51.9,38.4,30.06,NNW,338,0.0,0.0,60,0.00,,,0.00,WUHU216HW,2013-01-23 18:45:00,
2013-01-23 10:50:00,52.1,38.6,30.06,NNW,338,0.0,0.0,60,0.00,,,0.00,WUHU216HW,2013-01-23 18:50:00,
2013-01-23 10:55:00,52.3,38.8,30.06,NW,315,0.0,0.0,60,0.00,,,0.00,WUHU216HW,2013-01-23 18:55:00,
2013-01-23 11:00:00,52.7,38.8,30.05,NW,315,0.0,0.0,60,0.00,,,0.00,WUHU216HW,2013-01-23 19:00:00,
2013-01-23 11:05:00,52.7,38.7,30.06,NW,315,0.0,0.0,59,0.00,,,0.00,WUHU216HW,2013-01-23 19:05:00,
2013-01-23 11:10:00,53.0,39.5,30.05,NW,315,0.0,0.0,60,0.00,,,0.00,WUHU216HW,2013-01-23 19:10:00,
2013-01-23 11:15:00,53.6,40.1,30.05,SSE,158,0.0,0.0,60,0.00,,,0.00,WUHU216HW,2013-01-23 19:15:00,
2013-01-23 11:20:00,53.9,39.9,30.05,SSE,158,0.0,0.2,59,0.00,,,0.00,WUHU216HW,2013-01-23 19:20:00,
2013-01-23 11:25:00,54.1,40.1,30.05,ESE,113,0.0,0.2,59,0.00,,,0.00,WUHU216HW,2013-01-23 19:25:00,
2013-01-23 11:30:00,54.5,40.4,30.05,ESE,113,0.0,0.0,58,0.00,,,0.00,WUHU216HW,2013-01-23 19:30:00,
2013-01-23 11:35:00,54.8,40.2,30.05,ESE,113,0.0,0.0,58,0.00,,,0.00,WUHU216HW,2013-01-23 19:35:00,
2013-01-23 11:40:00,55.0,40.4,30.04,ESE,113,0.0,0.0,58,0.00,,,0.00,WUHU216HW,2013-01-23 19:40:00,
2013-01-23 11:45:00,55.4,40.3,30.04,ESE,113,0.0,0.0,57,0.00,,,0.00,WUHU216HW,2013-01-23 19:45:00,
2013-01-23 11:50:00,55.5,40.4,30.03,ESE,113,0.0,0.0,57,0.00,,,0.00,WUHU216HW,2013-01-23 19:50:00,
2013-01-23 11:55:00,55.7,40.6,30.03,SE,135,0.0,0.0,57,0.00,,,0.00,WUHU216HW,2013-01-23 19:55:00,
2013-01-23 12:00:00,56.3,41.2,30.03,South,180,0.0,0.0,57,0.00,,,0.00,WUHU216HW,2013-01-23 20:00:00,
2013-01-23 12:05:00,56.3,40.7,30.03,South,180,0.0,0.0,56,0.00,,,0.00,WUHU216HW,2013-01-23 20:05:00,
2013-01-23 12:10:00,56.6,41.1,30.03,South,180,0.0,0.0,56,0.00,,,0.00,WUHU216HW,2013-01-23 20:10:00,
2013-01-23 12:15:00,56.8,41.4,30.03,SE,135,0.0,0.0,56,0.00,,,0.00,WUHU216HW,2013-01-23 20:15:00,
2013-01-23 12:20:00,57.3,41.8,30.03,South,180,0.0,0.0,56,0.00,,,0.00,WUHU216HW,2013-01-23 20:20:00,
2013-01-23 12:25:00,57.3,41.3,30.03,South,180,0.0,0.0,55,0.00,,,0.00,WUHU216HW,2013-01-23 20:25:00,
2013-01-23 12:30:00,58.2,40.7,30.03,SSW,203,0.0,0.0,52,0.00,,,0.00,WUHU216HW,2013-01-23 20:30:00,
2013-01-23 12:35:00,58.4,40.9,30.03,SSW,203,0.0,0.0,52,0.00,,,0.00,WUHU216HW,2013-01-23 20:35:00,
2013-01-23 12:40:00,58.8,41.2,30.03,SSW,203,0.0,0.0,52,0.00,,,0.00,WUHU216HW,2013-01-23 20:40:00,
2013-01-23 12:45:00,59.5,41.8,30.02,SSW,203,0.0,0.0,52,0.00,,,0.00,WUHU216HW,2013-01-23 20:45:00,
2013-01-23 12:50:00,59.9,42.2,30.02,SSW,203,0.0,0.0,52,0.00,,,0.00,WUHU216HW,2013-01-23 20:50:00,
2013-01-23 12:55:00,60.2,41.5,30.02,SSW,203,0.0,0.0,50,0.00,,,0.00,WUHU216HW,2013-01-23 20:55:00,
2013-01-23 13:00:00,60.8,42.0,30.02,SSW,203,0.0,1.7,50,0.00,,,0.00,WUHU216HW,2013-01-23 21:00:00,
2013-01-23 13:05:00,61.1,41.8,30.02,SSE,158,0.0,1.7,49,0.00,,,0.00,WUHU216HW,2013-01-23 21:05:00,
2013-01-23 13:10:00,61.5,42.1,30.02,SSE,158,0.0,0.0,49,0.00,,,0.00,WUHU216HW,2013-01-23 21:10:00,
2013-01-23 13:15:00,61.7,40.5,30.01,SSE,158,0.0,0.0,46,0.00,,,0.00,WUHU216HW,2013-01-23 21:15:00,
2013-01-23 13:21:00,62.0,40.9,30.01,WNW,293,0.0,0.0,46,0.00,,,0.00,WUHU216HW,2013-01-23 21:21:00,
2013-01-23 13:26:00,62.0,40.3,30.01,NNW,338,2.6,2.6,45,0.00,,,0.00,WUHU216HW,2013-01-23 21:26:00,
2013-01-23 13:31:00,62.2,39.9,30.01,NNW,338,2.6,2.6,44,0.00,,,0.00,WUHU216HW,2013-01-23 21:31:00,
2013-01-23 13:36:00,62.4,40.0,30.01,NW,315,0.0,2.6,44,0.00,,,0.00,WUHU216HW,2013-01-23 21:36:00,
2013-01-23 13:41:00,62.4,39.5,30.02,NW,315,2.9,2.9,43,0.00,,,0.00,WUHU216HW,2013-01-23 21:41:00,
2013-01-23 13:46:00,62.4,38.9,30.02,NNW,338,2.4,3.3,42,0.00,,,0.00,WUHU216HW,2013-01-23 21:46:00,
2013-01-23 13:51:00,62.4,38.9,30.02,NNE,23,0.0,3.3,42,0.00,,,0.00,WUHU216HW,2013-01-23 21:51:00,
2013-01-23 13:56:00,62.2,38.7,30.01,NNW,338,0.0,2.4,42,0.00,,,0.00,WUHU216HW,2013-01-23 21:56:00,
2013-01-23 14:01:00,62.2,38.1,30.00,NNW,338,0.0,0.0,41,0.00,,,0.00,WUHU216HW,2013-01-23 22:01:00,
2013-01-23 14:06:00,62.2,38.1,30.00,NNW,338,0.0,0.0,41,0.00,,,0.00,WUHU216HW,2013-01-23 22:06:00,
2013-01-23 14:11:00,62.2,38.1,30.00,NNW,338,2.2,2.6,41,0.00,,,0.00,WUHU216HW,2013-01-23 22:11:00,
2013-01-23 14:16:00,62.0,38.0,30.01,North,0,0.0,2.6,41,0.00,,,0.00,WUHU216HW,2013-01-23 22:16:00,
2013-01-23 14:21:00,62.0,38.0,30.01,North,0,2.9,2.9,41,0.00,,,0.00,WUHU216HW,2013-01-23 22:21:00,
2013-01-23 14:26:00,62.0,38.0,30.00,North,0,0.0,2.9,41,0.00,,,0.00,WUHU216HW,2013-01-23 22:26:00,
2013-01-23 14:31:00,61.8,37.8,30.02,NNW,338,0.0,1.7,41,0.00,,,0.00,WUHU216HW,2013-01-23 22:31:00,
2013-01-23 14:36:00,61.8,37.8,30.01,NNW,338,0.0,1.7,41,0.00,,,0.00,WUHU216HW,2013-01-23 22:36:00,
2013-01-23 14:41:00,61.7,37.7,30.02,WNW,293,4.6,4.6,41,0.00,,,0.00,WUHU216HW,2013-01-23 22:41:00,
2013-01-23 14:46:00,61.5,37.5,30.02,WNW,293,4.6,4.6,41,0.00,,,0.00,WUHU216HW,2013-01-23 22:46:00,
2013-01-23 14:51:00,61.1,37.7,30.03,WNW,293,4.6,4.6,42,0.00,,,0.00,WUHU216HW,2013-01-23 22:51:00,
2013-01-23 14:57:00,61.1,37.7,30.03,WNW,293,4.6,4.6,42,0.00,,,0.00,WUHU216HW,2013-01-23 22:57:00,
2013-01-23 15:03:00,61.1,37.7,30.03,WNW,293,4.6,4.6,42,0.00,,,0.00,WUHU216HW,2013-01-23 23:03:00,
2013-01-23 15:08:00,61.1,37.7,30.03,WNW,293,4.6,4.6,42,0.00,,,0.00,WUHU216HW,2013-01-23 23:08:00,
2013-01-23 15:13:00,61.1,37.7,30.03,WNW,293,4.6,4.6,42,0.00,,,0.00,WUHU216HW,2013-01-23 23:13:00,
2013-01-23 16:08:00,58.4,40.4,30.05,NNW,338,0.0,0.0,51,0.00,,,0.00,WUHU216HW,2013-01-24 00:08:00,
2013-01-23 16:13:00,58.4,40.9,30.05,NNW,338,0.0,0.0,52,0.00,,,0.00,WUHU216HW,2013-01-24 00:13:00,
2013-01-23 16:18:00,58.1,40.5,30.06,SSE,158,0.0,0.0,52,0.00,,,0.00,WUHU216HW,2013-01-24 00:18:00,
2013-01-23 16:23:00,58.1,40.5,30.06,SSE,158,0.0,0.0,52,0.00,,,0.00,WUHU216HW,2013-01-24 00:23:00,
2013-01-23 16:28:00,58.1,41.5,30.06,SSE,158,0.0,0.0,54,0.00,,,0.00,WUHU216HW,2013-01-24 00:28:00,
2013-01-23 16:33:00,58.1,41.9,30.06,SSE,158,0.0,0.0,55,0.00,,,0.00,WUHU216HW,2013-01-24 00:33:00,
2013-01-23 16:38:00,56.3,40.2,30.06,SSE,158,0.0,0.0,55,0.00,,,0.00,WUHU216HW,2013-01-24 00:38:00,
2013-01-23 16:43:00,56.3,40.7,30.06,South,180,0.0,0.0,56,0.00,,,0.00,WUHU216HW,2013-01-24 00:43:00,
2013-01-23 16:48:00,55.9,41.3,30.05,South,180,0.0,0.0,58,0.04,,,0.04,WUHU216HW,2013-01-24 00:48:00,
2013-01-23 16:53:00,55.9,41.3,30.05,South,180,3.5,3.5,58,0.04,,,0.04,WUHU216HW,2013-01-24 00:53:00,
2013-01-23 16:58:00,55.7,41.6,30.05,SSE,158,1.3,3.5,59,0.04,,,0.04,WUHU216HW,2013-01-24 00:58:00,
2013-01-23 17:03:00,55.2,41.0,30.04,SSE,158,1.3,1.3,59,0.04,,,0.04,WUHU216HW,2013-01-24 01:03:00,
2013-01-23 17:08:00,55.0,40.9,30.04,SSE,158,4.2,4.2,59,0.04,,,0.04,WUHU216HW,2013-01-24 01:08:00,
2013-01-23 17:13:00,55.0,41.3,30.04,SSE,158,2.4,6.2,60,0.04,,,0.04,WUHU216HW,2013-01-24 01:13:00,
2013-01-23 17:18:00,54.5,40.9,30.04,SSE,158,0.0,6.2,60,0.04,,,0.04,WUHU216HW,2013-01-24 01:18:00,
2013-01-23 17:23:00,54.5,40.9,30.03,SE,135,4.6,5.3,60,0.04,,,0.04,WUHU216HW,2013-01-24 01:23:00,
2013-01-23 17:28:00,54.5,40.9,30.03,SE,135,4.6,4.6,60,0.04,,,0.04,WUHU216HW,2013-01-24 01:28:00,
2013-01-23 17:33:00,54.3,40.7,30.03,SE,135,4.6,4.6,60,0.04,,,0.04,WUHU216HW,2013-01-24 01:33:00,
2013-01-23 17:38:00,53.9,41.6,30.03,SE,135,4.6,4.6,63,0.04,,,0.04,WUHU216HW,2013-01-24 01:38:00,
2013-01-23 17:43:00,53.9,41.6,30.02,SE,135,1.7,4.6,63,0.00,,,0.04,WUHU216HW,2013-01-24 01:43:00,
2013-01-23 17:48:00,53.9,42.0,30.02,SSE,158,1.1,4.6,64,0.02,,,0.06,WUHU216HW,2013-01-24 01:48:00,
2013-01-23 17:53:00,53.7,42.2,30.03,SSE,158,0.0,1.7,65,0.02,,,0.06,WUHU216HW,2013-01-24 01:53:00,
2013-01-23 17:58:00,53.6,42.0,30.04,SSE,158,0.0,1.1,65,0.02,,,0.06,WUHU216HW,2013-01-24 01:58:00,
2013-01-23 18:04:00,53.2,41.7,30.04,ESE,113,0.0,0.0,65,0.02,,,0.06,WUHU216HW,2013-01-24 02:04:00,
2013-01-23 18:09:00,53.2,41.7,30.04,ESE,113,0.0,0.0,65,0.02,,,0.06,WUHU216HW,2013-01-24 02:09:00,
2013-01-23 18:14:00,53.4,42.2,30.05,NNE,23,0.0,0.0,66,0.02,,,0.06,WUHU216HW,2013-01-24 02:14:00,
2013-01-23 18:19:00,53.2,42.1,30.06,NNE,23,0.0,0.0,66,0.02,,,0.06,WUHU216HW,2013-01-24 02:19:00,
2013-01-23 18:24:00,53.2,42.1,30.06,NNE,23,0.0,0.0,66,0.02,,,0.06,WUHU216HW,2013-01-24 02:24:00,
2013-01-23 18:29:00,53.2,42.1,30.06,NNE,23,0.0,0.0,66,0.02,,,0.06,WUHU216HW,2013-01-24 02:29:00,
2013-01-23 18:34:00,53.0,42.3,30.06,NNE,23,0.0,0.0,67,0.02,,,0.06,WUHU216HW,2013-01-24 02:34:00,
2013-01-23 18:39:00,53.0,42.3,30.06,NNE,23,0.0,0.0,67,0.02,,,0.06,WUHU216HW,2013-01-24 02:39:00,
2013-01-23 18:44:00,53.0,42.3,30.06,NNE,23,0.0,0.0,67,0.00,,,0.06,WUHU216HW,2013-01-24 02:44:00,
2013-01-23 18:49:00,53.0,42.3,30.05,NNE,23,0.0,0.0,67,0.00,,,0.06,WUHU216HW,2013-01-24 02:49:00,
2013-01-23 18:54:00,53.0,42.3,30.06,NNE,23,0.0,0.0,67,0.00,,,0.06,WUHU216HW,2013-01-24 02:54:00,
2013-01-23 18:59:00,52.8,42.1,30.06,NE,45,0.0,0.0,67,0.00,,,0.06,WUHU216HW,2013-01-24 02:59:00,
2013-01-23 19:04:00,52.8,42.6,30.06,NE,45,0.0,0.0,68,0.00,,,0.06,WUHU216HW,2013-01-24 03:04:00,
2013-01-23 19:09:00,52.8,42.6,30.05,NE,45,0.0,0.0,68,0.00,,,0.06,WUHU216HW,2013-01-24 03:09:00,
2013-01-23 19:14:00,52.8,42.6,30.06,NNE,23,0.0,0.0,68,0.00,,,0.06,WUHU216HW,2013-01-24 03:14:00,
2013-01-23 19:19:00,52.8,42.9,30.06,North,0,0.0,0.0,69,0.00,,,0.06,WUHU216HW,2013-01-24 03:19:00,
2013-01-23 19:24:00,52.7,42.8,30.06,North,0,0.0,0.0,69,0.00,,,0.06,WUHU216HW,2013-01-24 03:24:00,
2013-01-23 19:29:00,52.7,43.2,30.06,North,0,0.0,0.0,70,0.00,,,0.06,WUHU216HW,2013-01-24 03:29:00,
2013-01-23 19:34:00,52.7,43.2,30.06,North,0,0.0,0.0,70,0.00,,,0.06,WUHU216HW,2013-01-24 03:34:00,
2013-01-23 19:39:00,52.7,43.2,30.06,North,0,0.0,0.0,70,0.00,,,0.06,WUHU216HW,2013-01-24 03:39:00,
2013-01-23 19:44:00,52.7,43.2,30.06,North,0,0.0,0.0,70,0.00,,,0.06,WUHU216HW,2013-01-24 03:44:00,
2013-01-23 19:49:00,52.7,43.2,30.06,North,0,0.0,0.0,70,0.00,,,0.06,WUHU216HW,2013-01-24 03:49:00,
2013-01-23 19:55:00,52.7,43.2,30.05,North,0,0.0,0.0,70,0.00,,,0.06,WUHU216HW,2013-01-24 03:55:00,
2013-01-23 20:00:00,52.7,43.9,30.06,North,0,0.0,0.0,72,0.00,,,0.06,WUHU216HW,2013-01-24 04:00:00,
2013-01-23 20:05:00,52.5,43.7,30.06,SSE,158,0.0,0.0,72,0.00,,,0.06,WUHU216HW,2013-01-24 04:05:00,
2013-01-23 20:10:00,52.5,43.7,30.06,SSE,158,0.0,0.0,72,0.00,,,0.06,WUHU216HW,2013-01-24 04:10:00,
2013-01-23 20:15:00,52.5,43.7,30.06,SE,135,0.0,0.0,72,0.00,,,0.06,WUHU216HW,2013-01-24 04:15:00,
2013-01-23 20:20:00,52.5,43.7,30.06,SSE,158,0.0,0.0,72,0.00,,,0.06,WUHU216HW,2013-01-24 04:20:00,
2013-01-23 20:25:00,52.3,43.6,30.07,SSE,158,0.0,0.0,72,0.00,,,0.06,WUHU216HW,2013-01-24 04:25:00,
2013-01-23 20:30:00,52.3,43.6,30.07,SW,225,0.0,0.0,72,0.00,,,0.06,WUHU216HW,2013-01-24 04:30:00,
2013-01-23 20:35:00,52.1,43.4,30.07,SSW,203,0.0,0.0,72,0.00,,,0.06,WUHU216HW,2013-01-24 04:35:00,
2013-01-23 20:40:00,52.1,43.4,30.06,ESE,113,0.0,1.5,72,0.00,,,0.06,WUHU216HW,2013-01-24 04:40:00,
2013-01-23 20:45:00,52.1,43.7,30.07,North,0,0.0,1.5,73,0.00,,,0.06,WUHU216HW,2013-01-24 04:45:00,
2013-01-23 20:50:00,52.1,44.1,30.06,NNW,338,0.0,0.0,74,0.00,,,0.06,WUHU216HW,2013-01-24 04:50:00,
2013-01-23 20:55:00,52.1,44.1,30.06,NNW,338,0.0,0.0,74,0.00,,,0.06,WUHU216HW,2013-01-24 04:55:00,
2013-01-23 21:01:00,52.1,44.1,30.06,NNW,338,0.0,0.0,74,0.00,,,0.06,WUHU216HW,2013-01-24 05:01:00,
2013-01-23 21:06:00,52.1,44.1,30.06,NNW,338,0.0,0.0,74,0.00,,,0.06,WUHU216HW,2013-01-24 05:06:00,
2013-01-23 21:11:00,52.1,43.7,30.06,NNW,338,0.0,0.0,73,0.00,,,0.06,WUHU216HW,2013-01-24 05:11:00,
2013-01-23 21:16:00,51.9,43.6,30.06,NNW,338,0.0,0.0,73,0.00,,,0.06,WUHU216HW,2013-01-24 05:16:00,
2013-01-23 21:21:00,51.9,43.6,30.06,NNW,338,0.0,0.0,73,0.00,,,0.06,WUHU216HW,2013-01-24 05:21:00,
2013-01-23 21:26:00,51.9,43.6,30.06,NNW,338,0.0,0.0,73,0.00,,,0.06,WUHU216HW,2013-01-24 05:26:00,
2013-01-23 21:31:00,51.8,43.8,30.07,NNW,338,0.0,0.0,74,0.00,,,0.06,WUHU216HW,2013-01-24 05:31:00,
2013-01-23 21:36:00,51.9,44.3,30.07,NNW,338,0.0,0.0,75,0.00,,,0.06,WUHU216HW,2013-01-24 05:36:00,
2013-01-23 21:41:00,51.9,44.6,30.07,NNW,338,0.0,0.0,76,0.00,,,0.06,WUHU216HW,2013-01-24 05:41:00,
2013-01-23 21:46:00,51.8,45.1,30.08,NW,315,0.0,0.0,78,0.00,,,0.06,WUHU216HW,2013-01-24 05:46:00,
2013-01-23 21:51:00,51.8,45.1,30.08,NW,315,0.0,0.0,78,0.00,,,0.06,WUHU216HW,2013-01-24 05:51:00,
2013-01-23 21:56:00,51.6,45.3,30.08,NNW,338,0.0,0.0,79,0.00,,,0.06,WUHU216HW,2013-01-24 05:56:00,
2013-01-23 22:01:00,51.6,44.9,30.08,NNW,338,0.0,0.0,78,0.00,,,0.06,WUHU216HW,2013-01-24 06:01:00,
2013-01-23 22:06:00,51.8,45.1,30.08,NNW,338,0.0,0.0,78,0.00,,,0.06,WUHU216HW,2013-01-24 06:06:00,
2013-01-23 22:11:00,51.6,44.6,30.08,NNW,338,0.0,0.0,77,0.00,,,0.06,WUHU216HW,2013-01-24 06:11:00,
2013-01-23 22:16:00,51.6,44.6,30.07,NNW,338,0.0,0.0,77,0.00,,,0.06,WUHU216HW,2013-01-24 06:16:00,
2013-01-23 22:21:00,51.6,44.6,30.07,NNW,338,0.0,0.0,77,0.00,,,0.06,WUHU216HW,2013-01-24 06:21:00,
2013-01-23 22:26:00,51.6,44.6,30.07,NNW,338,0.0,0.0,77,0.00,,,0.06,WUHU216HW,2013-01-24 06:26:00,
2013-01-23 22:31:00,51.6,44.6,30.07,NNW,338,0.0,0.0,77,0.00,,,0.06,WUHU216HW,2013-01-24 06:31:00,
2013-01-23 22:36:00,51.6,44.6,30.07,NNW,338,0.0,0.0,77,0.00,,,0.06,WUHU216HW,2013-01-24 06:36:00,
2013-01-23 22:41:00,51.6,44.6,30.07,NNW,338,0.0,0.0,77,0.00,,,0.06,WUHU216HW,2013-01-24 06:41:00,
2013-01-23 22:46:00,51.4,44.6,30.07,NNW,338,0.0,0.0,77,0.00,,,0.06,WUHU216HW,2013-01-24 06:46:00,
2013-01-23 22:51:00,51.6,44.6,30.07,NNW,338,0.0,0.0,77,0.00,,,0.06,WUHU216HW,2013-01-24 06:51:00,
2013-01-23 22:56:00,51.4,44.1,30.07,NNW,338,0.0,0.0,76,0.00,,,0.06,WUHU216HW,2013-01-24 06:56:00,
2013-01-23 23:01:00,51.4,44.1,30.07,NNW,338,0.0,0.0,76,0.00,,,0.06,WUHU216HW,2013-01-24 07:01:00,
2013-01-23 23:06:00,51.4,44.1,30.07,NNW,338,0.0,0.0,76,0.00,,,0.06,WUHU216HW,2013-01-24 07:06:00,
2013-01-23 23:11:00,51.4,44.1,30.07,NNW,338,0.0,0.0,76,0.00,,,0.06,WUHU216HW,2013-01-24 07:11:00,
2013-01-23 23:16:00,51.4,44.1,30.07,NNW,338,0.0,0.0,76,0.00,,,0.06,WUHU216HW,2013-01-24 07:16:00,
2013-01-23 23:21:00,51.4,44.1,30.07,NNW,338,0.0,0.0,76,0.00,,,0.06,WUHU216HW,2013-01-24 07:21:00,
2013-01-23 23:26:00,51.4,44.1,30.07,NNW,338,0.0,0.0,76,0.00,,,0.06,WUHU216HW,2013-01-24 07:26:00,
2013-01-23 23:31:00,51.4,44.1,30.07,NNW,338,0.0,0.0,76,0.00,,,0.06,WUHU216HW,2013-01-24 07:31:00,
2013-01-23 23:36:00,51.2,43.9,30.07,NNW,338,0.0,0.0,76,0.00,,,0.06,WUHU216HW,2013-01-24 07:36:00,
2013-01-23 23:41:00,51.4,44.1,30.07,NNW,338,0.0,0.0,76,0.00,,,0.06,WUHU216HW,2013-01-24 07:41:00,
2013-01-23 23:46:00,51.2,43.9,30.06,NNW,338,0.0,0.0,76,0.00,,,0.06,WUHU216HW,2013-01-24 07:46:00,
2013-01-23 23:51:00,51.2,43.9,30.06,NNW,338,0.0,0.0,76,0.00,,,0.06,WUHU216HW,2013-01-24 07:51:00,
2013-01-23 23:56:00,51.2,43.9,30.06,NNW,338,0.0,0.0,76,0.00,,,0.06,WUHU216HW,2013-01-24 07:56:00,